Weather History for Kendall, FL

Change the Weather History Date:

Wednesday, November 16, 2011

  Actual Average Record
Temperature  
Mean Temperature 80 °F -  
Max Temperature 84 °F 82 °F 88 °F (1989)
Min Temperature 75 °F 63 °F 54 °F (2008)
Cooling Degree Days 14    
Growing Degree Days 30 (Base 50)    
Moisture  
Dew Point 72 °F    
Average Humidity 80    
Maximum Humidity 91    
Minimum Humidity 63    
Precipitation  
Precipitation 0.00 in - - ()
Sea Level Pressure  
Sea Level Pressure 30.02 in    
Wind  
Wind Speed 8 mph (SE)    
Max Wind Speed 14 mph    
Max Gust Speed 20 mph    
Visibility 10 miles    
Events      
Averages and records for this station are not official NWS values.
T = Trace of Precipitation, MM = Missing Value Source: NWS Daily Summary

Daily Weather History Graph

Daily Weather History Graph

Search for Another Location

Airport:

Trip Planner

Search our weather history database for the weather conditions in past years. The results will help you decide how hot, cold, wet, or windy it might be!

Date:

Astronomy

Nov. 16, 2011 Rise Set
Actual Time 6:39 AM EST 5:32 PM EST
Civil Twilight 6:15 AM EST 5:57 PM EST
Nautical Twilight 5:47 AM EST 6:24 PM EST
Astronomical Twilight 5:20 AM EST 6:52 PM EST
Moon 10:39 PM EST (11/16) 11:17 AM EST (11/16)
Length of Visible Light 11h 41m
Length of Day
10h 52m
Waning Gibbous, 70% of the Moon is Illuminated
Nov 16
Waning Gibbous
Nov 18
Last Quarter
Nov 25
New
Dec 2
First Quarter
Dec 10
Full

Hourly Weather History & Observations

Time (EST) Temp. Heat Index Dew Point Humidity Pressure Visibility Wind Dir Wind Speed Gust Speed Precip Events Conditions
12:53 AM 77.0 °F - 73.9 °F 90% 30.05 in 10.0 mi ESE 8.1 mph - N/A   Partly Cloudy
1:53 AM 77.0 °F - 73.0 °F 88% 30.04 in 10.0 mi ESE 5.8 mph - N/A   Clear
2:53 AM 75.9 °F - 73.0 °F 91% 30.02 in 10.0 mi SE 6.9 mph - N/A   Clear
3:53 AM 75.9 °F - 73.0 °F 91% 30.02 in 10.0 mi SE 6.9 mph - N/A   Clear
4:53 AM 75.9 °F - 72.0 °F 87% 30.01 in 10.0 mi SE 8.1 mph - N/A   Clear
5:53 AM 75.9 °F - 72.0 °F 87% 30.02 in 10.0 mi SE 9.2 mph - N/A   Clear
6:53 AM 75.9 °F - 72.0 °F 87% 30.03 in 10.0 mi SE 6.9 mph - N/A   Clear
7:53 AM 77.0 °F - 72.0 °F 84% 30.04 in 10.0 mi SE 8.1 mph - N/A   Clear
8:53 AM 78.8 °F - 71.6 °F 78% 30.05 in 10.0 mi SE 13.8 mph 19.6 mph N/A   Partly Cloudy
9:53 AM 81.0 °F 84.9 °F 71.1 °F 72% 30.06 in 10.0 mi SE 10.4 mph - N/A   Partly Cloudy
10:53 AM 82.9 °F 87.0 °F 70.0 °F 65% 30.04 in 10.0 mi SE 11.5 mph - N/A   Clear
11:53 AM 82.9 °F 87.5 °F 71.1 °F 67% 30.03 in 10.0 mi SE 10.4 mph - N/A   Partly Cloudy
12:53 PM 84.0 °F 89.0 °F 71.1 °F 65% 30.01 in 10.0 mi SSE 9.2 mph - N/A   Clear
1:53 PM 82.0 °F 85.9 °F 70.0 °F 67% 29.99 in 10.0 mi South 6.9 mph - N/A   Clear
2:53 PM 84.0 °F 88.4 °F 70.0 °F 63% 29.99 in 10.0 mi SSE 8.1 mph - N/A   Scattered Clouds
3:53 PM 82.9 °F 87.5 °F 71.1 °F 67% 29.99 in 10.0 mi ESE 5.8 mph - N/A   Partly Cloudy
4:53 PM 80.1 °F 83.6 °F 71.1 °F 74% 29.99 in 10.0 mi ESE 10.4 mph - N/A   Clear
5:53 PM 75.9 °F - 71.1 °F 85% 30.01 in 10.0 mi East 8.1 mph - N/A   Clear
6:53 PM 75.0 °F - 71.1 °F 87% 30.02 in 10.0 mi East 5.8 mph - N/A   Clear
7:53 PM 75.0 °F - 71.1 °F 87% 30.03 in 10.0 mi East 5.8 mph - N/A   Scattered Clouds
8:53 PM 75.0 °F - 71.1 °F 87% 30.04 in 10.0 mi East 4.6 mph - N/A   Clear
9:53 PM 75.0 °F - 71.1 °F 87% 30.04 in 10.0 mi Calm Calm - N/A   Clear
10:53 PM 75.0 °F - 72.0 °F 90% 30.04 in 10.0 mi East 3.5 mph - N/A   Clear
11:53 PM - - - N/A% 30.04 in 10.0 mi Calm Calm - N/A   Mostly Cloudy